Total_Precipitation_Accumulation
2.81 2.87 2.87 2.80 2.58 2.92 3.33 3.58 3.23 3.48 3.50 3.10 2.77 2.64 2.63 2.56 2.71 2.92 2.80 2.94 2.91 2.92 3.24 3.40 3.24 2.97 2.73 2.38 2.10 1.85 1.62 1.49 1.35 1.11 0.93 0.90 0.86 0.83 0.81 0.78 0.74 0.68 0.64
3.32 3.36 3.22 3.10 2.75 2.73 3.03 3.27 3.28 3.66 3.49 3.30 2.68 2.59 2.53 2.65 2.83 2.85 2.86 3.34 3.28 3.03 3.09 3.39 3.61 3.56 3.32 3.10 2.74 2.40 2.08 1.90 1.77 1.43 1.12 1.02 0.98 0.93 0.90 0.91 0.95 0.85 0.70
3.85 3.70 3.49 3.09 2.85 2.86 3.08 3.04 3.06 3.19 3.07 2.97 2.72 2.77 2.74 2.70 2.63 2.68 2.88 3.12 3.02 2.78 2.83 3.05 3.45 3.72 3.94 3.95 3.68 3.39 2.81 2.28 2.07 1.75 1.39 1.13 1.00 0.94 0.92 0.93 1.00 0.97 0.81
3.61 3.62 3.29 2.87 2.90 2.91 2.97 3.08 2.94 3.01 3.01 3.03 2.98 2.73 2.78 2.77 2.40 2.42 2.57 2.61 2.74 2.45 2.58 2.79 2.99 3.27 3.94 4.56 4.92 4.82 4.11 3.19 2.57 2.18 1.88 1.53 1.25 1.07 0.96 0.96 1.05 1.03 0.86
3.39 3.52 3.21 3.03 2.95 2.92 2.80 2.58 3.00 3.15 3.16 3.13 2.79 2.67 2.45 2.25 2.08 1.93 1.96 1.83 2.03 2.22 2.42 2.50 2.74 2.94 3.66 4.66 5.54 5.83 5.41 4.38 3.49 2.89 2.56 2.18 1.82 1.50 1.22 1.13 1.09 1.01 0.90
3.04 3.23 2.97 2.88 2.97 3.07 2.91 2.90 3.21 3.26 2.98 3.02 2.63 2.50 2.33 1.91 1.80 1.75 1.67 1.68 1.66 1.60 1.96 2.42 2.87 2.57 2.96 3.83 4.70 5.41 5.85 5.48 4.54 3.83 3.28 2.87 2.50 2.12 1.69 1.49 1.38 1.29 1.20
2.66 3.03 2.81 3.11 2.93 2.85 2.70 2.66 2.78 2.83 2.58 2.78 3.03 2.56 2.04 1.73 1.63 1.54 1.56 1.63 1.58 1.67 2.02 2.46 2.75 2.88 2.70 2.65 3.13 3.83 4.94 5.47 5.14 4.48 3.89 3.44 3.05 2.72 2.25 1.96 1.77 1.59 1.51
2.75 2.60 2.79 2.62 2.59 2.68 2.49 2.40 2.62 2.64 2.36 2.67 2.85 2.86 2.25 1.99 1.71 1.26 1.41 1.54 1.65 1.89 1.94 2.03 2.44 2.78 2.70 2.98 2.53 2.48 3.47 4.49 5.18 5.14 4.54 3.92 3.44 3.01 2.60 2.34 2.02 1.70 1.52
2.91 2.79 2.68 2.50 2.44 2.30 2.40 2.44 2.50 2.54 2.49 2.45 2.51 2.78 2.42 2.01 1.69 1.33 1.32 1.55 1.85 2.07 2.06 2.11 2.11 2.36 2.45 2.77 2.71 2.50 2.48 3.00 4.00 5.01 5.09 4.43 3.63 2.99 2.58 2.51 2.40 2.06 1.76
3.04 2.78 2.62 2.41 2.25 2.12 2.37 2.09 2.19 2.48 2.63 2.35 2.34 2.32 2.24 2.32 2.19 1.80 1.44 1.37 1.64 1.84 1.91 1.81 1.86 2.04 2.26 2.56 2.68 2.69 2.44 2.40 2.92 3.95 4.62 4.61 4.06 3.38 2.92 2.89 3.14 3.05 2.55
2.79 2.48 2.40 2.34 2.17 2.04 2.07 2.06 2.34 2.36 2.38 2.32 2.39 2.35 2.42 2.55 2.36 2.19 1.82 1.71 1.86 1.83 1.74 1.69 1.73 1.88 2.12 2.43 2.74 2.76 2.96 2.67 2.51 2.74 3.26 3.68 3.88 3.67 3.33 3.43 3.99 4.29 3.96
2.44 2.24 2.16 2.25 2.10 2.01 2.03 2.02 2.14 2.23 2.38 2.48 2.48 2.45 2.49 2.48 2.48 2.67 2.31 2.08 2.05 1.79 1.73 1.75 1.83 1.95 2.12 2.35 2.38 2.58 2.75 2.82 2.68 2.58 2.64 2.82 3.13 3.40 3.56 3.81 4.27 4.71 4.93
2.01 1.96 2.04 2.16 2.02 1.97 2.04 2.19 2.18 2.16 2.31 2.41 2.37 2.45 2.52 2.46 2.56 2.75 2.66 2.31 2.10 1.87 1.91 1.90 1.89 2.10 2.13 2.42 2.66 2.62 2.36 2.44 2.38 2.33 2.30 2.31 2.37 2.67 3.01 3.31 3.83 4.37 4.82
1.76 1.81 2.02 2.10 2.03 1.95 1.94 2.30 2.28 2.29 2.38 2.36 2.26 2.56 2.61 2.41 2.60 2.80 2.90 2.91 2.59 2.40 2.45 2.43 2.18 2.15 2.25 2.39 2.64 2.52 2.29 2.29 2.00 1.91 1.87 1.88 1.92 2.03 2.23 2.50 2.85 3.23 3.54
1.82 1.90 1.96 2.15 2.24 2.31 2.35 2.48 2.41 2.40 2.58 2.54 2.49 2.66 2.66 2.53 2.55 2.68 2.91 3.11 3.12 2.92 2.84 2.76 2.45 2.32 2.28 2.25 2.39 2.28 2.35 2.28 1.85 1.61 1.54 1.51 1.48 1.49 1.56 1.73 1.97 2.29 2.51
1.95 1.98 1.98 2.06 2.19 2.32 2.38 2.52 2.52 2.56 2.73 2.73 2.78 2.86 2.75 2.51 2.62 2.68 2.81 3.08 3.34 3.38 3.13 2.75 2.53 2.40 2.39 2.12 2.15 1.96 1.99 1.94 1.64 1.47 1.37 1.32 1.27 1.25 1.26 1.32 1.46 1.73 1.94
1.92 1.96 1.96 1.94 1.95 2.09 2.29 2.49 2.45 2.62 2.74 2.78 2.76 2.67 2.58 2.62 2.77 2.71 2.85 3.01 3.22 3.45 3.19 2.85 2.71 2.67 2.65 2.45 2.27 1.97 1.73 1.61 1.49 1.54 1.38 1.24 1.19 1.19 1.23 1.29 1.35 1.47 1.65
1.98 1.95 1.92 1.91 1.87 1.96 2.21 2.38 2.49 2.74 2.87 2.78 2.70 2.64 2.54 2.66 2.77 2.75 2.83 2.82 2.90 3.18 3.09 2.88 2.83 2.87 2.76 2.53 2.39 2.19 1.83 1.63 1.64 1.74 1.57 1.39 1.29 1.27 1.24 1.24 1.32 1.41 1.52
1.91 1.87 1.89 1.96 2.06 2.17 2.35 2.47 2.58 2.75 2.72 2.62 2.64 2.56 2.47 2.56 2.52 2.59 2.61 2.60 2.61 2.71 2.89 2.81 2.72 2.80 2.72 2.52 2.42 2.24 2.11 2.19 2.00 1.84 1.69 1.53 1.42 1.35 1.33 1.26 1.28 1.37 1.47
1.66 1.72 1.92 2.15 2.29 2.41 2.50 2.53 2.54 2.51 2.52 2.43 2.34 2.27 2.30 2.43 2.53 2.49 2.39 2.38 2.45 2.59 2.70 2.73 2.70 2.78 2.79 2.77 2.62 2.48 2.47 2.41 2.25 1.82 1.71 1.53 1.42 1.31 1.24 1.16 1.18 1.33 1.47
1.65 1.86 2.03 2.13 2.16 2.21 2.27 2.38 2.39 2.33 2.31 2.23 2.14 1.96 1.99 2.31 2.47 2.41 2.21 2.30 2.36 2.44 2.53 2.66 2.71 2.79 2.86 3.04 2.81 2.52 2.42 2.48 2.35 2.11 1.93 1.70 1.56 1.45 1.39 1.33 1.27 1.28 1.31
1.85 2.03 2.03 2.00 1.94 1.68 1.77 1.90 1.95 2.00 2.04 2.02 1.90 1.83 1.83 1.92 1.95 1.98 1.96 1.96 2.01 2.08 2.29 2.56 2.67 2.68 2.65 2.74 2.81 2.69 2.58 2.54 2.51 2.41 2.43 2.31 1.98 1.88 1.75 1.60 1.48 1.24 1.11
2.06 2.17 2.14 2.06 1.91 1.81 1.70 1.61 1.62 1.69 1.83 1.84 1.86 1.90 1.67 1.49 1.61 1.64 1.76 1.74 1.67 1.73 1.86 2.13 2.34 2.35 2.43 2.45 2.68 2.72 2.77 2.81 2.79 2.74 2.73 2.77 2.41 2.10 1.85 1.76 1.66 1.32 1.17
2.31 2.33 2.29 2.18 2.06 1.97 1.89 1.72 1.71 1.65 1.74 1.76 1.76 1.77 1.71 1.59 1.57 1.67 1.73 1.68 1.53 1.48 1.46 1.46 1.68 1.96 2.17 2.40 2.46 2.52 2.66 2.74 2.75 2.59 2.54 2.63 2.46 2.29 1.97 1.69 1.57 1.37 1.19
2.46 2.42 2.44 2.33 2.23 2.23 2.11 1.77 1.62 1.55 1.70 1.73 1.72 1.66 1.61 1.55 1.58 1.46 1.43 1.46 1.45 1.42 1.27 1.26 1.34 1.56 1.76 1.82 2.03 2.30 2.52 2.52 2.48 2.27 2.08 2.19 2.25 2.25 2.20 1.94 1.57 1.44 1.24
2.58 2.55 2.48 2.47 2.37 2.33 2.26 1.74 1.46 1.40 1.59 1.64 1.70 1.66 1.54 1.40 1.37 1.25 1.24 1.39 1.38 1.36 1.37 1.30 1.22 1.25 1.34 1.50 1.58 1.66 1.97 2.19 2.11 2.06 1.81 1.73 1.72 1.83 1.99 1.80 1.52 1.42 1.37